Flag for U.S.A. Weather past 2 weeks in Dallas, Texas, U.S.A.

Now
74 °F

Passing clouds.


Feels Like: 77 °F
Forecast: 62 / 82 °F
Wind: 10 mph from East

Location: Dallas Love Field

Current Time: Sep 22, 2014 at 10:31:00 PM

Latest Report: Sep 22, 2014 at 9:53 PM


Visibility: 10 mi

Pressure: 30.13 "Hg

Humidity: 48%

Dew point: 53 °F

Location of DallasLocation

Historic Weather in Dallas — Graph

°F

Dallas temperature yesterday

Maximum temperature yesterday: 95 °F (at 4:53 PM)
Minimum temperature yesterday: 71 °F (at 5:53 AM)
Average temperature yesterday: 83 °F

Past Weeks' High & Low Weather Summary

 TemperatureHumidityPressure
High100 °F (Sep 10, 4:53 PM)96% (Sep 12, 10:53 AM)30.29 "Hg (Sep 12, 10:53 AM)
Low57 °F (Sep 13, 5:53 AM)25% (Sep 22, 3:53 PM)29.70 "Hg (Sep 10, 5:53 PM)
Average79 °F65%29.99 "Hg
* Reported Sep 7 8:53 PM — Sep 22 8:53 PM, Dallas, Weather by CustomWeather, © 2014

Note: Actual official high and low records may vary slightly from our data, if they occured in-between our weather recording intervals... More about our weather records

Advertising

Dallas weather history for previous 24 hours

 ConditionsComfort  
Time TempWeatherWind HumidityBarometerVisibility
8:53 PM
Sep 22
76 °FPassing clouds.7 mph42%30.11 "Hg10 mi
7:53 PM78 °FPassing clouds.9 mph37%30.09 "Hg10 mi
6:53 PM83 °FPassing clouds.9 mph30%30.08 "Hg10 mi
5:53 PM86 °FPassing clouds.7 mph26%30.07 "Hg10 mi
4:53 PM87 °FPassing clouds.10 mph26%30.09 "Hg10 mi
3:53 PM88 °FPassing clouds.6 mph25%30.09 "Hg10 mi
2:53 PM87 °FPassing clouds.6 mph27%30.11 "Hg10 mi
1:53 PM85 °FPassing clouds.13 mph32%30.14 "Hg10 mi
12:53 PM84 °FPassing clouds.6 mph33%30.16 "Hg10 mi
11:53 AM83 °FPassing clouds.13 mph34%30.18 "Hg10 mi
10:53 AM80 °FPassing clouds.13 mph38%30.19 "Hg10 mi
9:53 AM77 °FScattered clouds.13 mph44%30.18 "Hg10 mi
8:53 AM74 °FPartly sunny.10 mph50%30.17 "Hg10 mi
7:53 AM74 °FPartly cloudy.8 mph53%30.15 "Hg10 mi
6:53 AM74 °FPassing clouds.8 mph56%30.14 "Hg10 mi
5:53 AM74 °FMostly cloudy.10 mph56%30.12 "Hg10 mi
4:53 AM76 °FMostly cloudy.9 mph56%30.11 "Hg10 mi
3:53 AM77 °FPassing clouds.8 mph60%30.10 "Hg10 mi
2:53 AM77 °FPassing clouds.8 mph66%30.09 "Hg10 mi
1:53 AM79 °FPassing clouds.8 mph69%30.09 "Hg10 mi
12:53 AM79 °FPassing clouds.14 mph72%30.07 "Hg10 mi
11:53 PM
Sep 21
81 °FPassing clouds.12 mph67%30.07 "Hg10 mi
10:53 PM82 °FPassing clouds.5 mph56%30.06 "Hg10 mi
Weather by CustomWeather, © 2014

See weather overviewHow to use our weather pages